Weather observations for the past three days for
Bryce Canyon Airport
Imperial (Metric)
Date Time (mdt) Wind (mph) Vis. (mi.) Weather Sky Cond. Temperature (ºF) Relative Humidity Wind Chill (°F) Heat Index (°F) Pressure Precipitation (in)
Air Dwpt 6 hour altimeter (in) sea level (mb) 1 hr 3 hr 6 hr
Max. Min.
18 13:53 Vrbl 5 10.00 Fair CLR 82 37 20% 80 30.44 1017.3
18 12:53 S 8 10.00 Fair CLR 80.1 39 23% 79 30.46 1018.4
18 11:53 S 13 10.00 Fair CLR 78.1 39.9 80.1 55.9 26% 78 30.47 1018.0
18 10:53 Calm 10.00 Mostly Cloudy BKN110 75.9 41 29% 77 30.47 1018.8
18 09:53 NE 6 10.00 Mostly Cloudy BKN110 73.9 43 33% 30.47 1018.4
18 08:53 Vrbl 3 10.00 Partly Cloudy SCT100 71.1 43 36% 30.46 1017.7
18 07:53 NE 7 10.00 A Few Clouds FEW120 66.9 43 42% 30.45 1016.9
18 06:53 NW 8 10.00 Partly Cloudy SCT110 60.1 43 53% 30.45 1017.7
18 05:53 W 6 10.00 Mostly Cloudy BKN110 57 42.1 63 52 58% 30.43 1017.4
18 04:53 W 6 10.00 Partly Cloudy SCT120 57 42.1 58% 30.42 1017.1
18 03:53 W 6 10.00 A Few Clouds FEW120 57.9 42.1 56% 30.42 1016.0
18 02:53 SW 9 10.00 A Few Clouds FEW120 53.1 39.9 61% 30.41 1016.3
18 01:53 Calm 10.00 Fair CLR 55.9 39.9 55% 30.41 1015.9
18 00:53 W 3 10.00 Fair CLR 55.9 39.9 55% 30.42 1016.6
17 23:53 W 7 10.00 Fair CLR 63 41 78.1 57.9 45% 30.43 1016.1
17 22:53 W 7 10.00 Fair CLR 60.1 42.1 52% 30.42 1016.5
17 21:53 Calm 10.00 Fair CLR 63 39.9 43% 30.41 1016.3
17 20:53 N 6 10.00 Mostly Cloudy BKN110 71.1 41 34% 30.41 1016.2
17 19:53 N 10 10.00 Mostly Cloudy BKN110 75.9 39.9 27% 77 30.39 1016.0
17 18:53 N 15 10.00 A Few Clouds FEW110 77 42.1 29% 78 30.38 1016.8
17 17:53 NE 18 G 26 10.00 Mostly Cloudy BKN110 78.1 41 87.1 77 27% 78 30.37 1016.3
17 16:53 SW 20 G 43 10.00 Light Rain FEW009 FEW075 OVC100 77 39 26% 77 30.39 1017.0
17 15:53 N 13 G 20 10.00 A Few Clouds FEW110 84 39.9 21% 81 30.37 1015.6
17 14:53 SW 5 10.00 Thunderstorm in Vicinity FEW110 84 36 18% 81 30.37 1015.5
17 13:53 Vrbl 6 10.00 Fair CLR 84.9 36 17% 82 30.38 1015.7
17 12:53 Calm 10.00 Fair CLR 82.9 37 19% 80 30.4 1016.1
17 11:53 E 9 10.00 Fair CLR 81 37.9 81 46.9 21% 79 30.41 1016.4
17 10:53 Vrbl 5 10.00 Fair CLR 79 37.9 23% 78 30.42 1017.0
17 09:53 Calm 10.00 Fair CLR 75 43 32% 77 30.43 1017.4
17 08:53 Calm 10.00 Fair CLR 66.9 42.1 41% 30.43 1017.5
17 07:53 NW 3 10.00 Fair CLR 57.9 42.1 56% 30.42 1017.3
17 06:53 W 8 10.00 Fair CLR 48.9 39.9 71% 46 30.4 1018.1
17 05:53 W 9 10.00 Fair CLR 50 41 57 48.9 71% 47 30.39 1017.2
17 04:53 W 9 10.00 Fair CLR 51.1 41 69% 30.38 1016.2
17 03:53 W 8 10.00 Fair CLR 50 41 71% 47 30.38 1016.6
17 02:53 W 10 10.00 Fair CLR 50 41 71% 46 30.37 1016.5
17 01:53 W 8 10.00 A Few Clouds FEW120 51.1 41 69% 30.38 1016.8
17 00:53 W 9 10.00 Fair CLR 54 42.1 64% 30.38 1016.3
16 23:53 W 7 10.00 Fair CLR 57 43 75 55.9 60% 30.37 1015.4
16 22:53 W 7 10.00 Fair CLR 57 43 60% 30.38 1015.6
16 21:53 W 6 10.00 Fair CLR 59 43 56% 30.37 1015.3
16 20:53 W 7 10.00 Fair CLR 66 43 43% 30.36 1015.0
16 19:53 SW 10 10.00 Mostly Cloudy BKN110 75 41 29% 77 30.36 1015.3
16 18:53 SW 12 10.00 Mostly Cloudy FEW055 SCT080 BKN110 73.9 41 31% 30.36 1015.9
16 17:53 N 6 10.00 Fair CLR 75 39.9 81 73 28% 77 30.36 1015.9
16 16:53 NE 14 G 28 10.00 Fair CLR 80.1 42.1 26% 79 30.37 1015.4
16 15:53 Vrbl 7 10.00 Fair CLR 78.1 41 27% 78 30.37 1015.6
16 14:53 SE 13 G 21 10.00 Fair CLR 78.1 42.1 28% 78 30.39 1015.6
16 13:53 SE 13 G 21 10.00 Mostly Cloudy FEW055 SCT090 BKN100 73.9 42.1 32% 30.39 1016.6
16 12:53 W 18 G 36 10.00 Partly Cloudy SCT090 75 37.9 26% 77 30.4 1016.1
16 11:53 W 5 10.00 A Few Clouds FEW120 78.1 39.9 80.1 53.1 26% 78 30.38 1015.3
16 10:53 Calm 10.00 Fair CLR 78.1 41 27% 78 30.39 1015.3
16 09:53 Calm 10.00 Fair CLR 75.9 41 29% 77 30.39 1015.7
16 08:53 N 5 10.00 Fair CLR 70 44.1 39% 30.39 1015.6
16 07:53 W 3 10.00 A Few Clouds FEW120 57 43 60% 30.39 1016.4
16 06:53 N 3 10.00 Fair CLR 54 42.1 64% 30.37 1016.0
16 05:53 W 3 10.00 Fair CLR 53.1 39.9 60.1 51.1 61% 30.35 1015.7
16 04:53 W 6 10.00 Fair CLR 54 41 62% 30.35 1014.4
16 03:53 Calm 10.00 Partly Cloudy SCT095 55.9 42.1 60% 30.35 1014.4
16 02:53 W 8 10.00 Fair CLR 59 43 56% 30.36 1014.9
16 01:53 W 3 10.00 Fair CLR 57.9 41 53% 30.36 1014.9
16 00:53 W 6 10.00 Mostly Cloudy BKN110 60.1 42.1 52% 30.37 1014.7
15 23:53 Calm 10.00 A Few Clouds FEW110 59 41 78.1 57.9 51% 30.37 1014.9
15 22:53 W 7 10.00 Fair CLR 61 43 52% 30.37 1014.7
15 21:53 W 5 10.00 Fair CLR 61 41 48% 30.36 1014.6
15 20:53 NW 7 10.00 Fair CLR 68 42.1 39% 30.36 1014.5
15 19:53 W 13 10.00 Fair CLR 73.9 42.1 32% 30.34 1014.3
15 18:53 Vrbl 3 10.00 Partly Cloudy SCT110 75.9 39.9 27% 77 30.34 1014.7
15 17:53 W 22 G 31 10.00 Mostly Cloudy and Breezy BKN110 75 41 82.9 73.9 29% 77 30.34 1015.1
15 16:53 NW 15 G 22 10.00 Fair CLR 81 39 22% 79 30.34 1014.5
15 15:53 N 12 10.00 Mostly Cloudy BKN100 79 41 26% 78 30.37 1015.6
15 14:53 Calm 10.00 Light Rain BKN100 BKN120 75 41 29% 77 30.39 1016.9
Date Time (mdt) Wind (mph) Vis. (mi.) Weather Sky Cond. Air Dwpt Max. Min. Relative Humidity Wind Chill (°F) Heat Index (°F) altimeter (in) sea level (mb) 1 hr 3 hr 6 hr
6 hour
Temperature (ºF) Pressure Precipitation (in)